[[{"header":{"parameterUnit":"m.s-1","parameterCategory":1,"la1":30.2991,"la2":30.254,"lo1":-89.0895,"lo2":-89.0444,"dy":0.0017,"dx":0.0017,"nx":28,"ny":28,"refTime":"2025-04-08T21:00:00:Z","depth":0,"parameterNumber":2,"parameterNumberName":"U-component_of_WINDS"},"data":[0,0,0,0,0,0,0,0,0,0,0,0,0,0,0,0,0,0,0,0,0,0,0,0,0,0,0,0,0,0,0,0,0,0,0,0,0,0,0,0,0,0,0,0,0,0,0,0,0,0,0,0,0,0,0,0,0,0,-1.9456,-1.9457,0,-1.9541,-1.9542,-1.9543,-1.9452,-1.9449,-1.9445,-1.9442,-1.9531,-1.9536,-1.9542,0,0,0,0,0,0,0,0,0,0,0,0,0,-1.9216,-1.922,-1.9456,-1.9457,-1.9458,-1.9541,-1.9542,-1.9543,-1.9453,-1.9449,-1.9444,-1.944,-1.9529,-1.9536,-1.9542,0,0,0,0,0,0,0,0,0,0,0,0,0,-1.9312,-1.9222,-1.9456,-1.9423,-1.9421,-1.9541,-1.9542,-1.9544,-1.9454,-1.9448,-1.9443,-1.9438,-1.9527,-1.9535,-1.9543,-1.97,0,0,-1.9569,-1.9573,0,0,0,0,0,0,0,0,-1.9307,-1.9321,-1.9427,-1.9425,-1.9423,-1.9481,-1.949,-1.9596,-1.9455,-1.9441,-1.9442,-1.9436,-1.9518,-1.9527,-1.9555,-1.9704,-1.9708,-1.957,-1.9575,-1.9578,-1.9581,0,0,0,0,0,0,0,-1.93,-1.9317,-1.949,-1.9428,-1.9426,-1.9404,-1.9412,-1.951,-1.9508,-1.9442,-1.9436,-1.9447,-1.9516,-1.9547,-1.9556,-1.971,-1.957,-1.9577,-1.9582,-1.9586,-1.9991,-1.9996,0,0,0,0,0,0,-1.9297,-1.9312,-1.9487,-1.9492,-1.9351,-1.9413,-1.9421,-1.9468,-1.9507,-1.9508,-1.9451,-1.9442,-1.9535,-1.9546,-1.9559,-1.9744,-1.9578,-1.9586,-1.9591,-1.9985,-1.9992,-1.9998,0,0,0,0,0,0,-1.9292,-1.9314,-1.9484,-1.9401,-1.942,-1.9422,-1.9475,-1.9472,-1.9502,-1.9514,-1.9513,-1.9483,-1.9531,-1.9547,-1.9665,-1.9746,-1.959,-1.9598,-1.9978,-1.9987,-1.9995,-2.0117,0,0,0,0,0,0,-1.9286,-1.9313,-1.9372,-1.9403,-1.9425,-1.9589,-1.948,-1.9477,-1.9517,-1.9506,-1.9543,-1.9544,-1.9528,-1.9653,-1.9674,-1.9755,-1.9604,-1.9971,-1.9982,-1.9992,-2.0106,-2.0129,-2.0149,0,0,0,0,0,-1.9278,-1.9404,-1.9376,-1.9397,-1.95,-1.9594,-1.9607,-1.9585,-1.9524,-1.9584,-1.9591,-1.9543,-1.9734,-1.9666,-1.9688,-1.9774,-1.9966,-1.9979,-1.9991,-2.0097,-2.0125,-2.0148,0,0,0,0,0,0,-1.9384,-1.9408,-1.9376,-1.9516,-1.9554,-1.9578,-1.9653,-1.9616,-1.9672,-1.966,-1.9631,-1.9641,-1.9766,-1.9781,-1.9705,-1.9927,-1.984,-1.9858,-1.9912,-1.9939,-1.996,-1.9953,-1.9611,0,0,0,0,0,-1.9424,-1.9498,-1.9514,-1.9636,-1.9656,-1.9652,-1.9692,-1.9672,-1.971,-1.9726,-1.9741,-1.978,-1.9848,-1.9894,-1.9958,-2.0108,-2.0114,-2.0177,-2.0198,-2.0216,-2.0232,-2.031,-2.0338,-2.004,-2.004,-2.004,0,0,-1.9507,-1.9529,-1.9577,-1.9658,-1.9685,-1.9762,-1.9666,-1.9752,-1.9809,-1.9739,-1.9851,-1.9864,-1.9905,-2.004,-2.01,-2.0056,-2.0315,-2.0232,-2.0246,-2.0252,-2.0327,-2.0355,-2.038,-2.0049,-2.0047,-2.0046,0,0,-1.9697,-1.9722,-1.9825,-1.9853,-1.9894,-1.989,-1.9915,-1.9946,-1.9951,-2.0063,-2.0012,-2.0079,-2.0198,-2.0229,-2.0261,-2.0461,-2.0419,-2.0483,-2.0594,-2.0671,-2.0695,-2.0716,-2.0786,-2.0812,-2.0499,-2.0499,-2.0499,0,-1.9796,-1.991,-1.9883,-1.9973,-2.0009,-1.9948,-2.0053,-2.0082,-2.0142,-2.0169,-2.0119,-2.0266,-2.029,-2.043,-2.0479,-2.0507,-2.0534,-2.0479,-2.0694,-2.0714,-2.0733,-2.08,-2.0827,-2.0506,-2.0506,-2.0505,-2.0504,0,-2.0028,-2.0108,-2.0186,-2.0245,-2.029,-2.0387,-2.0375,-2.0425,-2.0401,-2.0402,-2.0516,-2.0542,-2.0609,-2.0641,-2.0619,-2.0778,-2.075,-2.0698,-2.061,-2.0769,-2.0832,-2.0857,-2.0517,-2.0514,-2.0512,-2.051,0,0,-2.0289,-2.033,-2.036,-2.0385,-2.0425,-2.0486,-2.058,-2.0645,-2.0687,-2.0731,-2.0808,-2.0909,-2.0861,-2.0897,-2.0877,-2.0945,-2.1101,-2.0884,-2.0885,-2.0923,-2.1277,-2.1315,-2.1346,-2.1073,-2.1078,-2.1082,-2.1273,0,-2.0479,-2.0641,-2.062,-2.0775,-2.0848,-2.079,-2.0871,-2.0905,-2.0908,-2.097,-2.0974,-2.1046,-2.0977,-2.0998,-2.1062,-2.1069,-2.1172,-2.1055,-2.1145,-2.1148,-2.1136,-2.1378,-2.142,-2.1599,-2.1297,-2.1301,-2.1304,0,-2.0724,-2.0775,-2.0937,-2.0965,-2.0994,-2.1068,-2.1125,-2.1185,-2.1222,-2.1219,-2.1259,-2.1227,-2.132,-2.123,-2.1358,-2.1278,-2.1314,-2.1322,-2.1329,-2.1336,-2.1236,-2.1392,-2.1655,-2.1682,-2.1343,-2.134,-2.1337,0,-2.0897,-2.1006,-2.1117,-2.1141,-2.1176,-2.1229,-2.1246,-2.1277,-2.1317,-2.1367,-2.1392,-2.1453,-2.1486,-2.1534,-2.1519,-2.1455,-2.1649,-2.1558,-2.1649,-2.165,-2.1693,-2.169,-2.1965,-2.1717,-2.1717,-2.1716,-2.1715,0,-2.1112,-2.1213,-2.1195,-2.1263,-2.1375,-2.1349,-2.146,-2.147,-2.1498,-2.1567,-2.1521,-2.1587,-2.1563,-2.1627,-2.1616,-2.1723,-2.1739,-2.1739,-2.1734,-2.1743,-2.1743,-2.1765,-2.1752,-2.1723,-2.1722,-2.172,-2.1719,0,-2.1324,-2.1316,-2.1433,-2.1456,-2.1464,-2.1546,-2.1565,-2.1629,-2.1628,-2.1716,-2.1735,-2.1734,-2.1807,-2.1796,-2.1878,-2.187,-2.2003,-2.1984,-2.1991,-2.1986,-2.2077,-2.2068,-2.2376,-2.2414,-2.2142,-2.2145,-2.2147,0,-2.1462,-2.1538,-2.1569,-2.1612,-2.1632,-2.1702,-2.1742,-2.1719,-2.1763,-2.1809,-2.1867,-2.1936,-2.199,-2.2109,-2.2115,-2.2177,-2.2159,-2.2262,-2.2168,-2.2173,-2.2159,-2.2154,-2.2161,-2.2281,-2.2284,-2.2287,-2.2289,0,-2.1707,-2.1698,-2.1758,-2.1816,-2.1865,-2.191,-2.195,-2.1988,-2.1969,-2.202,-2.2094,-2.2135,-2.2217,-2.2286,-2.2344,-2.2361,-2.2322,-2.2318,-2.2342,-2.2351,-2.2351,-2.2351,-2.2041,-2.2311,-2.2309,-2.2307,-2.2306,-2.2305,-2.1885,-2.195,-2.1981,-2.2049,-2.2076,-2.2115,-2.2175,-2.2182,-2.2242,-2.2307,-2.229,-2.2373,-2.2406,-2.2479,-2.2503,-2.2567,-2.2529,-2.2565,-2.2573,-2.2582,-2.2592,-2.2342,-2.2578,-2.2577,-2.2577,-2.2576,-2.2576,0,-2.2126,-2.2143,-2.2206,-2.2263,-2.2316,-2.2274,-2.2316,-2.2363,-2.2436,-2.247,-2.2524,-2.2608,-2.2673,-2.2685,-2.2747,-2.2796,-2.278,-2.2813,-2.2809,-2.2813,-2.2623,-2.2596,-2.2825,-2.2825,-2.2825,-2.2825,-2.2825,-2.2825,-2.2258,-2.2365,-2.236,-2.248,-2.2496,-2.2577,-2.2604,-2.2639,-2.2666,-2.2761,-2.2816,-2.2822,-2.2847,-2.291,-2.2968,-2.297,-2.2994,-2.3035,-2.303,-2.2852,-2.2827,-2.2803,-2.2777,-2.3041,-2.3041,-2.3214,-2.3215,-2.3217]},{"header":{"parameterUnit":"m.s-1","parameterCategory":1,"la1":30.2991,"la2":30.254,"lo1":-89.0895,"lo2":-89.0444,"dy":0.0017,"dx":0.0017,"nx":28,"ny":28,"refTime":"2025-04-08T21:00:00:Z","depth":0,"parameterNumber":3,"parameterNumberName":"V-component_of_WINDS"},"data":[0,0,0,0,0,0,0,0,0,0,0,0,0,0,0,0,0,0,0,0,0,0,0,0,0,0,0,0,0,0,0,0,0,0,0,0,0,0,0,0,0,0,0,0,0,0,0,0,0,0,0,0,0,0,0,0,0,0,-3.3756,-3.3756,0,-3.3822,-3.3823,-3.3824,-3.3788,-3.3786,-3.3785,-3.3783,-3.3851,-3.3854,-3.3857,0,0,0,0,0,0,0,0,0,0,0,0,0,-3.3595,-3.3598,-3.3755,-3.3756,-3.3757,-3.3822,-3.3823,-3.3824,-3.3789,-3.3786,-3.3784,-3.3782,-3.385,-3.3854,-3.3858,0,0,0,0,0,0,0,0,0,0,0,0,0,-3.3663,-3.3599,-3.3755,-3.3747,-3.3747,-3.3822,-3.3823,-3.3824,-3.3789,-3.3786,-3.3784,-3.3781,-3.3848,-3.3853,-3.3858,-3.3945,0,0,-3.3874,-3.3877,0,0,0,0,0,0,0,0,-3.3659,-3.3669,-3.3748,-3.3748,-3.3748,-3.3794,-3.3791,-3.3865,-3.379,-3.3773,-3.3783,-3.378,-3.3834,-3.384,-3.3859,-3.3948,-3.3951,-3.3875,-3.3878,-3.388,-3.3882,0,0,0,0,0,0,0,-3.3655,-3.3666,-3.3782,-3.3749,-3.3749,-3.3739,-3.3746,-3.3805,-3.3818,-3.3774,-3.3772,-3.378,-3.3834,-3.3854,-3.386,-3.3952,-3.3875,-3.3879,-3.3883,-3.3885,-3.4112,-3.4115,0,0,0,0,0,0,-3.3651,-3.3662,-3.378,-3.3784,-3.3696,-3.3745,-3.3752,-3.3782,-3.3817,-3.382,-3.3783,-3.3778,-3.3846,-3.3854,-3.3862,-3.3964,-3.388,-3.3885,-3.3888,-3.411,-3.4113,-3.4116,0,0,0,0,0,0,-3.3647,-3.3661,-3.3777,-3.3723,-3.3736,-3.375,-3.3784,-3.3785,-3.3805,-3.3823,-3.3825,-3.3801,-3.3844,-3.3855,-3.3924,-3.3966,-3.3887,-3.3892,-3.4106,-3.4111,-3.4115,-3.4169,0,0,0,0,0,0,-3.3643,-3.366,-3.3694,-3.3724,-3.374,-3.3839,-3.3787,-3.3788,-3.3814,-3.3809,-3.3841,-3.3844,-3.3843,-3.3916,-3.3929,-3.3972,-3.3896,-3.4102,-3.4108,-3.4113,-3.4164,-3.4175,-3.4184,0,0,0,0,0,-3.3637,-3.3707,-3.3696,-3.3711,-3.3782,-3.3841,-3.385,-3.3848,-3.3818,-3.3851,-3.3862,-3.3843,-3.3959,-3.3924,-3.3938,-3.3983,-3.41,-3.4106,-3.4113,-3.4159,-3.4173,-3.4184,0,0,0,0,0,0,-3.3683,-3.3711,-3.3699,-3.3781,-3.3809,-3.3835,-3.3877,-3.3863,-3.39,-3.3894,-3.3889,-3.3897,-3.3968,-3.3982,-3.3942,-3.4066,-3.4025,-3.4034,-3.4055,-3.4068,-3.4078,-3.4073,-3.3901,0,0,0,0,0,-3.3703,-3.3749,-3.3771,-3.3841,-3.3855,-3.3864,-3.389,-3.3885,-3.3914,-3.3926,-3.3942,-3.397,-3.4013,-3.4041,-3.4082,-3.4165,-3.4171,-3.4203,-3.4213,-3.4222,-3.423,-3.4273,-3.4287,-3.4138,-3.4138,-3.4138,0,0,-3.3744,-3.3765,-3.3794,-3.385,-3.3871,-3.3918,-3.3874,-3.3926,-3.396,-3.3933,-3.3999,-3.4012,-3.4043,-3.4119,-3.4154,-3.4133,-3.4272,-3.423,-3.4237,-3.424,-3.4281,-3.4295,-3.4308,-3.4142,-3.4141,-3.4141,0,0,-3.3842,-3.3863,-3.3923,-3.3945,-3.3977,-3.3982,-3.3996,-3.4024,-3.4031,-3.4097,-3.4077,-3.4118,-3.4192,-3.4214,-3.4235,-3.4339,-3.4322,-3.4353,-3.4407,-3.4449,-3.446,-3.4471,-3.4506,-3.4519,-3.4361,-3.4361,-3.4361,0,-3.3889,-3.3959,-3.3955,-3.4008,-3.4033,-3.401,-3.4069,-3.409,-3.4134,-3.4151,-3.4127,-3.4218,-3.4238,-3.4318,-3.4343,-3.4361,-3.4376,-3.4349,-3.4459,-3.4469,-3.4479,-3.4513,-3.4526,-3.4365,-3.4364,-3.4364,-3.4363,0,-3.4014,-3.4063,-3.4107,-3.4149,-3.4179,-3.4235,-3.4238,-3.4268,-3.4261,-3.4268,-3.4334,-3.4356,-3.44,-3.4418,-3.4412,-3.4497,-3.4483,-3.4459,-3.4417,-3.4497,-3.4528,-3.4541,-3.4369,-3.4368,-3.4367,-3.4366,0,0,-3.4145,-3.4182,-3.4198,-3.4216,-3.4249,-3.4286,-3.434,-3.4383,-3.4408,-3.4438,-3.4482,-3.4544,-3.4522,-3.4546,-3.4542,-3.4579,-3.4657,-3.455,-3.4551,-3.4568,-3.475,-3.4767,-3.4782,-3.4646,-3.4649,-3.4651,-3.4747,0,-3.4244,-3.4339,-3.4336,-3.4423,-3.4467,-3.4445,-3.4492,-3.4516,-3.4524,-3.4561,-3.4569,-3.4613,-3.4581,-3.4595,-3.4631,-3.464,-3.4694,-3.4634,-3.4686,-3.4688,-3.4678,-3.4799,-3.4817,-3.4907,-3.4759,-3.4761,-3.4763,0,-3.4373,-3.4407,-3.4499,-3.4523,-3.4541,-3.4584,-3.4621,-3.4657,-3.4684,-3.4687,-3.4712,-3.4701,-3.4754,-3.4711,-3.4783,-3.4742,-3.4763,-3.4771,-3.4774,-3.4779,-3.473,-3.4805,-3.4936,-3.4949,-3.4783,-3.4781,-3.478,0,-3.4457,-3.4526,-3.4589,-3.4605,-3.4635,-3.4665,-3.4679,-3.4703,-3.4728,-3.476,-3.4776,-3.4814,-3.4835,-3.4864,-3.4863,-3.4832,-3.4936,-3.4892,-3.4938,-3.4938,-3.4961,-3.4959,-3.5096,-3.4976,-3.4976,-3.4976,-3.4975,0,-3.4568,-3.4625,-3.4627,-3.4666,-3.4728,-3.4723,-3.4784,-3.4795,-3.4816,-3.4856,-3.4839,-3.4877,-3.4874,-3.4911,-3.4911,-3.4969,-3.4979,-3.4982,-3.4981,-3.4983,-3.4983,-3.4996,-3.499,-3.4979,-3.4978,-3.4978,-3.4977,0,-3.4672,-3.4676,-3.4743,-3.4766,-3.4773,-3.4817,-3.4836,-3.4872,-3.4877,-3.4928,-3.4939,-3.4947,-3.499,-3.4992,-3.5042,-3.5041,-3.5112,-3.5105,-3.5104,-3.5102,-3.5147,-3.5142,-3.5296,-3.5315,-3.5184,-3.5186,-3.5187,0,-3.4743,-3.4786,-3.4812,-3.4837,-3.4853,-3.4894,-3.4918,-3.4915,-3.4941,-3.4973,-3.5005,-3.5046,-3.5079,-3.5148,-3.5158,-3.5195,-3.5188,-3.5239,-3.5194,-3.5194,-3.5187,-3.5184,-3.5188,-3.5248,-3.525,-3.5251,-3.5252,0,-3.4866,-3.4865,-3.4902,-3.4939,-3.4968,-3.4997,-3.5024,-3.5045,-3.5044,-3.5074,-3.5118,-3.5143,-3.5193,-3.5233,-3.5269,-3.5282,-3.5267,-3.5266,-3.5278,-3.5281,-3.5277,-3.5278,-3.5127,-3.5263,-3.5262,-3.5261,-3.526,-3.526,-3.4955,-3.4991,-3.5015,-3.5055,-3.5075,-3.5099,-3.5134,-3.5143,-3.5179,-3.5219,-3.5214,-3.5262,-3.5285,-3.5331,-3.5347,-3.5384,-3.5366,-3.5385,-3.5389,-3.5393,-3.5397,-3.5272,-3.5391,-3.539,-3.539,-3.539,-3.539,0,-3.5077,-3.509,-3.5127,-3.5165,-3.5196,-3.5178,-3.5206,-3.5233,-3.5275,-3.5298,-3.533,-3.5379,-3.5417,-3.543,-3.5467,-3.5494,-3.5487,-3.5503,-3.5501,-3.5504,-3.5412,-3.5397,-3.5508,-3.5508,-3.5508,-3.5508,-3.5508,-3.5508,-3.5144,-3.5203,-3.5205,-3.5273,-3.5286,-3.5332,-3.5349,-3.5371,-3.5389,-3.5445,-3.5476,-3.5484,-3.5502,-3.554,-3.5574,-3.5576,-3.559,-3.5609,-3.5609,-3.5522,-3.5511,-3.5499,-3.5485,-3.5613,-3.5613,-3.5697,-3.5698,-3.5699]}]]